Location: Newark
(52.4787°S, 179.0532°W)
Time: 05:00:58
(UTC+00:00)

Vanguard 1 - Pass Details

Date: 21 November 2019
Orbit: 652 x 3832 km, 34.3° (Epoch: 09 December)

Event Time Altitude Azimuth Distance (km) Brightness Sun altitude
Rises 13:57:38 0° 275° (W) 6,400 13.9 -11.8°
Reaches altitude 10° 14:01:46 10° 282° (WNW) 5,759 13.6 -11.5°
Maximum altitude 14:18:28 39° 341° (NNW) 4,774 13.1 -10.0°
Drops below altitude 10° 14:38:29 10° 39° (NE) 6,796 14.2 -8.1°
Sets 14:44:00 0° 46° (NE) 7,611 14.6 -7.5°
